This demonstration page uses our WeatherBlox Daily Observations layout. Learn more.

Hourly Observations for July 30, 2017

Temp ( °F °C ) Dew Point ( °F °C ) Humidity (%) Winds ( mph kmh ) Pressure ( in mb ) Visibility ( mi km ) Precip ( " mm )
12:15 am 00:15 Clear 68 20 55 13 64 64 N 7 11 29.97 1015 10 16.09344 0 0
12:35 am 00:35 Clear 64 18 55 13 73 73 N 6 9 29.97 1015 10 16.09344 0 0
12:55 am 00:55 Clear 64 18 55 13 73 73 N 7 11 29.97 1015 10 16.09344 0 0
1:15 am 01:15 Clear 64 18 55 13 73 73 N 6 9 29.97 1015 10 16.09344 0 0
1:35 am 01:35 Clear 64 18 55 13 73 73 N 6 9 29.97 1015 10 16.09344 0 0
1:55 am 01:55 Clear 64 18 55 13 73 73 N 7 11 29.97 1015 10 16.09344 0 0
2:15 am 02:15 Clear 64 18 55 13 73 73 N 7 11 29.97 1015 10 16.09344 0 0
2:35 am 02:35 Clear 64 18 55 13 73 73 N 8 13 29.97 1015 10 16.09344 0 0
2:55 am 02:55 Clear 63 17 55 13 77 77 N 7 11 29.97 1015 10 16.09344 0 0
3:15 am 03:15 Clear 63 17 55 13 77 77 NNW 7 11 29.97 1015 10 16.09344 0 0
3:35 am 03:35 Clear 63 17 55 13 77 77 N 7 11 29.97 1015 10 16.09344 0 0
3:55 am 03:55 Clear 61 16 55 13 83 83 NNW 8 13 29.97 1015 10 16.09344 0 0
4:15 am 04:15 Clear 63 17 55 13 77 77 N 7 11 29.97 1015 10 16.09344 0 0
4:35 am 04:35 Clear 63 17 54 12 73 73 NNW 6 9 29.97 1015 10 16.09344 0 0
4:55 am 04:55 Clear 61 16 54 12 77 77 NNW 7 11 30 1016 10 16.09344 0 0
5:15 am 05:15 Clear 61 16 54 12 77 77 N 6 9 30 1016 10 16.09344 0 0
5:35 am 05:35 Clear 61 16 54 12 77 77 NNW 5 7 30 1016 10 16.09344 0 0
5:55 am 05:55 Clear 61 16 54 12 77 77 NNW 5 7 30 1016 10 16.09344 0 0
6:15 am 06:15 Sunny 61 16 54 12 77 77 NNW 6 9 30.03 1017 10 16.09344 0 0
6:35 am 06:35 Sunny 61 16 54 12 77 77 N 6 9 30.03 1017 10 16.09344 0 0
6:55 am 06:55 Sunny 61 16 54 12 77 77 N 6 9 30.03 1017 10 16.09344 0 0
7:15 am 07:15 Sunny 63 17 55 13 77 77 N 3 6 30.03 1017 10 16.09344 0 0
7:35 am 07:35 Sunny 64 18 55 13 73 73 NNW 6 9 30.03 1017 10 16.09344 0 0
7:55 am 07:55 Sunny 66 19 55 13 68 68 NNW 5 7 30.06 1018 10 16.09344 0 0
8:15 am 08:15 Sunny 68 20 57 14 69 69 NNW 6 9 30.06 1018 10 16.09344 0 0
8:35 am 08:35 Sunny 68 20 55 13 64 64 NNW 8 13 30.06 1018 10 16.09344 0 0
8:55 am 08:55 Sunny 70 21 55 13 60 60 NNW 6 9 30.06 1018 10 16.09344 0 0
9:15 am 09:15 Sunny 70 21 55 13 60 60 NNE 7 11 30.09 1019 10 16.09344 0 0
9:35 am 09:35 Sunny 72 22 54 12 53 53 N 8 13 30.09 1019 10 16.09344 0 0
9:55 am 09:55 Sunny 72 22 55 13 57 57 N 6 9 30.09 1019 10 16.09344 0 0
10:15 am 10:15 Sunny 72 22 55 13 57 57 NNE 10 17 30.09 1019 10 16.09344 0 0
10:35 am 10:35 Sunny 73 23 55 13 53 53 NNE 9 15 30.09 1019 10 16.09344 0 0
10:55 am 10:55 Sunny 73 23 55 13 53 53 N 6 9 30.09 1019 10 16.09344 0 0
11:15 am 11:15 Sunny 73 23 57 14 57 57 NNE 6 9 30.09 1019 10 16.09344 0 0
11:35 am 11:35 Sunny 75 24 57 14 54 54 N 6 9 30.09 1019 10 16.09344 0 0
11:55 am 11:55 Sunny 75 24 57 14 54 54 NNE 5 7 30.09 1019 10 16.09344 0 0
12:15 pm 12:15 Sunny 77 25 59 15 54 54 N 10 17 30.09 1019 10 16.09344 0 0
12:35 pm 12:35 Sunny 77 25 59 15 54 54 N 8 13 30.09 1019 10 16.09344 0 0
12:55 pm 12:55 Sunny 79 26 59 15 51 51 NNW 3 6 30.09 1019 10 16.09344 0 0
1:15 pm 13:15 Sunny 77 25 59 15 54 54 Calm 30.09 1019 10 16.09344 0 0
1:35 pm 13:35 Sunny 79 26 59 15 51 51 NE 3 6 30.09 1019 10 16.09344 0 0
1:55 pm 13:55 Sunny 79 26 61 16 54 54 NNE 8 13 30.09 1019 10 16.09344 0 0
2:15 pm 14:15 Sunny 79 26 61 16 54 54 NW 6 9 30.09 1019 10 16.09344 0 0
2:35 pm 14:35 Sunny 79 26 59 15 51 51 NNE 7 11 30.09 1019 10 16.09344 0 0
2:55 pm 14:55 Sunny 81 27 59 15 48 48 NE 7 11 30.06 1018 10 16.09344 0 0
3:15 pm 15:15 Sunny 81 27 57 14 45 45 N 10 17 30.06 1018 10 16.09344 0 0
3:35 pm 15:35 Sunny 81 27 59 15 48 48 N 8 13 30.06 1018 10 16.09344 0 0
3:55 pm 15:55 Sunny 81 27 59 15 48 48 NNE 8 13 30.06 1018 10 16.09344 0 0
4:15 pm 16:15 Sunny 81 27 59 15 48 48 N 8 13 30.06 1018 10 16.09344 0 0
4:35 pm 16:35 Sunny 82 28 59 15 45 45 Calm 30.06 1018 10 16.09344 0 0
4:55 pm 16:55 Sunny 82 28 57 14 42 42 N 3 6 30.06 1018 10 16.09344 0 0
5:15 pm 17:15 Sunny 82 28 57 14 42 42 N 6 9 30.06 1018 10 16.09344 0 0
5:35 pm 17:35 Sunny 82 28 55 13 40 40 NNW 9 15 30.06 1018 10 16.09344 0 0
5:55 pm 17:55 Sunny 82 28 55 13 40 40 NNE 7 11 30.06 1018 10 16.09344 0 0
6:15 pm 18:15 Sunny 82 28 55 13 40 40 N 8 13 30.06 1018 10 16.09344 0 0
6:35 pm 18:35 Sunny 81 27 55 13 42 42 NNE 5 7 30.06 1018 10 16.09344 0 0
6:55 pm 18:55 Sunny 81 27 55 13 42 42 NNE 3 6 30.06 1018 10 16.09344 0 0
7:15 pm 19:15 Sunny 81 27 55 13 42 42 NE 3 6 30.06 1018 10 16.09344 0 0
7:35 pm 19:35 Sunny 81 27 55 13 42 42 Calm 30.09 1019 10 16.09344 0 0
7:55 pm 19:55 Sunny 79 26 55 13 45 45 Calm 30.09 1019 10 16.09344 0 0
8:15 pm 20:15 Sunny 77 25 59 15 54 54 Calm 30.09 1019 10 16.09344 0 0
8:35 pm 20:35 Clear 75 24 61 16 61 61 Calm 30.09 1019 10 16.09344 0 0
8:55 pm 20:55 Clear 73 23 61 16 65 65 Calm 30.09 1019 10 16.09344 0 0
9:15 pm 21:15 Clear 70 21 63 17 78 78 Calm 30.09 1019 10 16.09344 0 0
9:35 pm 21:35 Clear 70 21 63 17 78 78 Calm 30.09 1019 10 16.09344 0 0
9:55 pm 21:55 Clear 68 20 64 18 88 88 Calm 30.09 1019 10 16.09344 0 0
10:15 pm 22:15 Clear 68 20 64 18 88 88 Calm 30.12 1020 10 16.09344 0 0
10:35 pm 22:35 Clear 66 19 63 17 88 88 Calm 30.12 1020 10 16.09344 0 0
10:55 pm 22:55 Clear 66 19 63 17 88 88 Calm 30.12 1020 10 16.09344 0 0
11:15 pm 23:15 Clear 64 18 63 17 94 94 Calm 30.09 1019 10 16.09344 0 0
11:35 pm 23:35 Clear 64 18 63 17 94 94 Calm 30.12 1020 10 16.09344 0 0
11:55 pm 23:55 Clear 63 17 63 17 100 100 Calm 30.12 1020 10 16.09344 0 0

Powered by AerisWeather